Weather History for Buckhannon, WV

Change the Weather History Date:

Sunday, February 17, 2013

  Actual Average (KEKN) Record (KEKN)
Temperature  
Mean Temperature 16 °F 32 °F  
Max Temperature 21 °F 43 °F 67 °F (1961)
Min Temperature 12 °F 22 °F -9 °F (1904)
Degree Days  
Heating Degree Days 48 33  
Month to date heating degree days 577  
Since 1 July heating degree days 3978  
Cooling Degree Days 0 0  
Month to date cooling degree days 0  
Year to date cooling degree days 0  
Moisture  
Dew Point 9 °F    
Average Humidity 69    
Maximum Humidity 93    
Minimum Humidity 50    
Precipitation  
Precipitation 3.72 in 0.12 in 0.88 in (1986)
Month to date precipitation 1.84  
Year to date precipitation 5.07  
Snow  
Snow 0.00 in - - ()
Month to date snowfall  
Since 1 September snowfall  
Snow Depth -    
Sea Level Pressure  
Sea Level Pressure 30.07 in    
Wind  
Wind Speed 10 mph (West)    
Max Wind Speed 15 mph    
Max Gust Speed 26 mph    
Visibility 8 miles    
Events Snow    
T = Trace of Precipitation, MM = Missing Value Source: NWS Daily Summary

Daily Weather History Graph

Daily Weather History Graph

Search for Another Location

Airport:

Trip Planner

Search our weather history database for the weather conditions in past years. The results will help you decide how hot, cold, wet, or windy it might be!

Date:

Astronomy

Feb. 17, 2013 Rise Set
Actual Time 7:09 AM EST 6:00 PM EST
Civil Twilight 6:42 AM EST 6:28 PM EST
Nautical Twilight 6:11 AM EST 6:59 PM EST
Astronomical Twilight 5:40 AM EST 7:30 PM EST
Moon 11:05 AM EST (2/17) 12:51 AM EST (2/17)
Length of Visible Light 11h 45m
Length of Day
10h 51m
Waxing Crescent, 49% of the Moon is Illuminated
Feb 17
Waxing Crescent
Feb 17
First Quarter
Feb 25
Full
Mar 4
Last Quarter
Mar 11
New

Hourly Weather History & Observations

Time (EST) Temp. Windchill Dew Point Humidity Pressure Visibility Wind Dir Wind Speed Gust Speed Precip Events Conditions
12:15 AM 21.2 °F 8.3 °F 17.6 °F 86% 29.91 in 10.0 mi WNW 13.8 mph - N/A Snow Light Snow
12:35 AM 21.2 °F 9.5 °F 15.8 °F 80% 29.91 in 10.0 mi WNW 11.5 mph 20.7 mph N/A Snow Light Snow
12:55 AM 21.2 °F 11.7 °F 17.6 °F 86% 29.92 in 1.2 mi WNW 8.1 mph - 0.20 in Snow Snow
1:15 AM 19.4 °F 5.5 °F 15.8 °F 86% 29.92 in 2.5 mi West 15.0 mph 19.6 mph 0.53 in Snow Light Snow
1:35 AM 19.4 °F 7.2 °F 14.0 °F 80% 29.92 in 9.0 mi West 11.5 mph 17.3 mph 0.53 in   Mostly Cloudy
1:55 AM 19.4 °F 7.2 °F 12.2 °F 74% 29.93 in 10.0 mi West 11.5 mph - 0.53 in   Mostly Cloudy
2:15 AM 19.4 °F 6.6 °F 12.2 °F 74% 29.93 in 9.0 mi West 12.7 mph 20.7 mph N/A Snow Light Snow
2:35 AM 19.4 °F 7.9 °F 14.0 °F 80% 29.94 in 2.5 mi West 10.4 mph - 0.04 in Snow Light Snow
2:55 AM 17.6 °F 7.3 °F 14.0 °F 86% 29.94 in 1.0 mi WNW 8.1 mph 18.4 mph 0.33 in Snow Light Snow
3:35 AM 19.4 °F 8.6 °F 14.0 °F 80% 29.93 in 2.5 mi West 9.2 mph - 0.18 in Snow Light Snow
3:55 AM 17.6 °F 4.3 °F 14.0 °F 86% 29.94 in 9.0 mi West 12.7 mph 18.4 mph 0.22 in   Overcast
4:15 AM 17.6 °F 7.3 °F 14.0 °F 86% 29.94 in 5.0 mi WNW 8.1 mph - N/A Snow Light Snow
4:55 AM 17.6 °F 6.4 °F 14.0 °F 86% 29.95 in 2.0 mi West 9.2 mph 16.1 mph 0.72 in Snow Light Snow
5:15 AM 17.6 °F 5.7 °F 14.0 °F 86% 29.96 in 0.8 mi West 10.4 mph 18.4 mph 0.43 in Snow Light Snow
5:35 AM 15.8 °F 3.4 °F 12.2 °F 86% 29.97 in 2.0 mi WNW 10.4 mph 21.9 mph 0.54 in Snow Light Snow
5:55 AM 15.8 °F 6.1 °F 12.2 °F 86% 29.98 in 4.0 mi WNW 6.9 mph 18.4 mph 0.56 in Snow Light Snow
6:15 AM 15.8 °F 5.1 °F 12.2 °F 86% 29.98 in 0.8 mi West 8.1 mph - 0.52 in Snow Snow
6:35 AM 14.0 °F 3.9 °F 12.2 °F 93% 29.99 in 2.0 mi West 6.9 mph - 0.84 in Snow Light Snow
6:55 AM 14.0 °F 3.9 °F 12.2 °F 93% 30.00 in 1.0 mi West 6.9 mph - 1.00 in Snow Light Snow
7:15 AM 14.0 °F 3.9 °F 10.4 °F 86% 30.01 in 1.0 mi West 6.9 mph - 0.12 in Snow Light Snow
7:35 AM 14.0 °F 2.0 °F 6.8 °F 73% 30.01 in 7.0 mi West 9.2 mph - 0.13 in   Mostly Cloudy
7:55 AM 14.0 °F -0.8 °F 8.6 °F 79% 30.03 in 3.0 mi West 13.8 mph 19.6 mph 0.14 in Snow Light Snow
8:15 AM 12.2 °F -1.0 °F 6.8 °F 79% 30.04 in 10.0 mi West 10.4 mph - N/A   Mostly Cloudy
8:35 AM 12.2 °F -0.2 °F 5.0 °F 73% 30.04 in 10.0 mi WSW 9.2 mph 18.4 mph N/A   Mostly Cloudy
8:55 AM 14.0 °F 2.0 °F 5.0 °F 67% 30.05 in 10.0 mi WSW 9.2 mph - N/A   Mostly Cloudy
9:15 AM 14.0 °F 0.5 °F 5.0 °F 67% 30.05 in 10.0 mi WSW 11.5 mph 16.1 mph N/A   Mostly Cloudy
9:35 AM 14.0 °F 1.2 °F 5.0 °F 67% 30.06 in 10.0 mi West 10.4 mph 16.1 mph N/A   Mostly Cloudy
9:55 AM 14.0 °F 1.2 °F 5.0 °F 67% 30.07 in 10.0 mi WSW 10.4 mph - N/A   Overcast
10:15 AM 14.0 °F 1.2 °F 5.0 °F 67% 30.07 in 10.0 mi West 10.4 mph - N/A   Mostly Cloudy
10:35 AM 17.6 °F 5.0 °F 6.8 °F 63% 30.08 in 10.0 mi WSW 11.5 mph 18.4 mph N/A   Mostly Cloudy
10:55 AM 17.6 °F 5.7 °F 8.6 °F 68% 30.08 in 10.0 mi West 10.4 mph - N/A   Mostly Cloudy
11:15 AM 17.6 °F 6.4 °F 8.6 °F 68% 30.09 in 10.0 mi West 9.2 mph - N/A   Overcast
11:35 AM 17.6 °F 5.0 °F 6.8 °F 63% 30.09 in 10.0 mi West 11.5 mph 17.3 mph N/A   Overcast
11:55 AM 17.6 °F 5.0 °F 6.8 °F 63% 30.09 in 10.0 mi West 11.5 mph 17.3 mph N/A Snow Light Snow
12:15 PM 19.4 °F 9.5 °F 6.8 °F 58% 30.08 in 10.0 mi West 8.1 mph - N/A   Mostly Cloudy
12:35 PM 19.4 °F 10.4 °F 5.0 °F 54% 30.08 in 10.0 mi WNW 6.9 mph 19.6 mph N/A   Mostly Cloudy
12:55 PM 19.4 °F 5.5 °F 5.0 °F 54% 30.08 in 10.0 mi WSW 15.0 mph 26.5 mph N/A   Scattered Clouds
1:15 PM 19.4 °F 7.9 °F 6.8 °F 58% 30.08 in 6.0 mi West 10.4 mph 21.9 mph N/A Snow Light Snow
1:35 PM 19.4 °F 9.5 °F 8.6 °F 63% 30.08 in 9.0 mi West 8.1 mph - N/A   Scattered Clouds
1:55 PM 19.4 °F 7.9 °F 8.6 °F 63% 30.09 in 4.0 mi WNW 10.4 mph 18.4 mph 0.01 in Snow Light Snow
2:15 PM 19.4 °F 7.2 °F 6.8 °F 58% 30.09 in 10.0 mi West 11.5 mph 21.9 mph N/A   Partly Cloudy
2:35 PM 19.4 °F 11.5 °F 6.8 °F 58% 30.09 in 10.0 mi WNW 5.8 mph 16.1 mph N/A Snow Light Snow
2:55 PM 19.4 °F 7.2 °F 8.6 °F 63% 30.10 in 7.0 mi West 11.5 mph 20.7 mph N/A   Scattered Clouds
3:15 PM 19.4 °F 7.2 °F 10.4 °F 68% 30.10 in 2.5 mi West 11.5 mph 20.7 mph 0.01 in Snow Light Snow
3:35 PM 19.4 °F 7.2 °F 10.4 °F 68% 30.10 in 8.0 mi West 11.5 mph 20.7 mph 0.01 in Snow Light Snow
3:55 PM 19.4 °F 8.6 °F 10.4 °F 68% 30.10 in 10.0 mi West 9.2 mph - 0.01 in   Partly Cloudy
4:15 PM 19.4 °F 9.5 °F 10.4 °F 68% 30.11 in 10.0 mi NW 8.1 mph - N/A   Mostly Cloudy
4:55 PM 19.4 °F 10.4 °F 8.6 °F 63% 30.11 in 10.0 mi WNW 6.9 mph - N/A   Scattered Clouds
5:15 PM 21.2 °F 8.9 °F 8.6 °F 58% 30.12 in 10.0 mi West 12.7 mph 18.4 mph N/A   Scattered Clouds
5:55 PM 19.4 °F 10.4 °F 6.8 °F 58% 30.14 in 10.0 mi WNW 6.9 mph - N/A   Mostly Cloudy
6:15 PM 19.4 °F 9.5 °F 6.8 °F 58% 30.15 in 10.0 mi WNW 8.1 mph - N/A   Mostly Cloudy
6:35 PM 19.4 °F 9.5 °F 6.8 °F 58% 30.15 in 10.0 mi West 8.1 mph - N/A   Overcast
6:55 PM 19.4 °F 7.9 °F 5.0 °F 54% 30.16 in 10.0 mi West 10.4 mph 18.4 mph N/A   Overcast
7:15 PM 21.2 °F 10.1 °F 5.0 °F 50% 30.16 in 10.0 mi West 10.4 mph - N/A   Overcast
7:35 PM 19.4 °F 8.6 °F 6.8 °F 58% 30.17 in 10.0 mi West 9.2 mph - N/A   Overcast
8:15 PM 19.4 °F 10.4 °F 6.8 °F 58% 30.18 in 10.0 mi West 6.9 mph - N/A   Mostly Cloudy
8:55 PM 19.4 °F 11.5 °F 5.0 °F 54% 30.19 in 10.0 mi West 5.8 mph - N/A   Scattered Clouds
9:35 PM 19.4 °F 12.8 °F 5.0 °F 54% 30.20 in 10.0 mi West 4.6 mph - N/A   Clear
9:55 PM 19.4 °F 12.8 °F 5.0 °F 54% 30.21 in 10.0 mi WSW 4.6 mph - N/A   Clear
10:15 PM 19.4 °F 12.8 °F 5.0 °F 54% 30.21 in 10.0 mi WSW 4.6 mph - N/A   Clear
10:35 PM 17.6 °F 10.7 °F 5.0 °F 58% 30.21 in 10.0 mi WSW 4.6 mph - N/A   Clear
10:55 PM 15.8 °F - 5.0 °F 62% 30.22 in 10.0 mi Calm Calm - N/A   Clear
11:15 PM 15.8 °F - 6.8 °F 68% 30.22 in 10.0 mi Calm Calm - N/A   Clear
11:35 PM 15.8 °F - 6.8 °F 68% 30.22 in 10.0 mi Calm Calm - N/A   Clear
11:55 PM 15.8 °F - 6.8 °F 68% 30.23 in 10.0 mi Calm Calm - N/A   Clear